STARLINK-34867 (65459 NORAD) Tracking and Keplerian Element Data

This shows tracking and keplerian element data for the satellite.

Feedback or suggestion? Click here.




ElementValue
Catalog65459
NameSTARLINK-34867
Epoch Orbit1780
Epoch Day354.07102451
Epoch Year2025
RAAN268.0143
Inclination53.1592
Eccentricity0.0001371
Argument of Perigee98.4558
Mean Anonmoly261.6598
Mean Motion15.30196441
Decay Rate0.00023904
L11 65459U 25195B 25354.07102451 .00023904 00000+0 81669-3 0 9990
L22 65459 53.1592 268.0143 0001371 98.4558 261.6598 15.30196441 17808



Live tracking and technical data element details for STARLINK-34867 (NORAD 65459). STARLINK-34867 can be tracked NOW for your location showing map with azimuth and elevation plus other details from your city location.







IsCatalogInMostPopularTable: catalog: 65459, numindb: 3
Update: records affected: 1



GetName: 65459 STARLINK-34867

Hit Count: updated at: Mon, 09 Feb 2026 08:50:13 GMT